period_start,C,m1,H,J0,J1,J2,J3,J4,J5,JA,JB,JC,JD,JJ,JK,JN,#
2014-09-15 00:03:03,0.02,0.45,0.00,24.87,29.02,31.35,9.43,39.59,1011.19,2030.03,3329.38,3175.08,3437.00,500.10,491.15,40.49,0000 0000 0000 0000 000000
2014-09-15 00:08:04,0.00,0.45,0.00,24.91,29.03,31.36,9.46,39.51,1011.20,2030.03,3329.01,3175.00,3436.99,499.97,490.94,40.53,0000 0000 0000 0000 000000
2014-09-15 00:13:05,0.00,0.45,0.00,24.91,29.05,31.38,9.49,39.64,1011.18,2030.00,3329.01,3175.00,3436.91,499.92,490.79,40.58,0000 0000 0000 0000 000000
2014-09-15 00:18:06,0.01,0.45,0.00,24.95,29.06,31.39,9.47,39.58,1011.03,2030.00,3328.99,3174.98,3436.35,500.04,490.90,40.62,0000 0000 0000 0000 000000
2014-09-15 00:23:07,0.02,0.45,0.00,24.97,29.07,31.41,9.46,39.63,1010.84,2030.00,3328.67,3174.76,3436.03,500.51,491.14,40.66,0000 0000 0000 0000 000000
2014-09-15 00:28:08,0.02,0.45,0.00,24.98,29.10,31.42,9.46,39.62,1010.78,2030.00,3328.12,3174.19,3436.00,500.45,491.03,40.70,0000 0000 0000 0000 000000
2014-09-15 00:33:09,0.00,0.45,0.00,25.00,29.11,31.43,9.47,39.43,1010.77,2030.00,3328.00,3174.02,3435.99,499.45,489.94,40.74,0000 0000 0000 0000 000000
2014-09-15 00:38:10,0.00,0.45,0.00,25.04,29.12,31.45,9.49,39.65,1010.77,2030.00,3327.99,3174.00,3435.90,500.13,490.60,40.78,0000 0000 0000 0000 000000
2014-09-15 00:43:11,0.01,0.45,0.00,25.08,29.15,31.47,9.42,39.68,1010.77,2029.99,3327.94,3174.00,3435.38,499.58,490.13,40.83,0000 0000 0000 0000 000000
2014-09-15 00:48:12,0.01,0.45,0.00,25.11,29.17,31.49,9.47,39.64,1010.76,2029.98,3327.49,3173.97,3435.01,499.83,490.03,40.87,0000 0000 0000 0000 000000
2014-09-15 00:53:13,0.02,0.45,0.00,25.12,29.19,31.50,9.40,39.66,1010.76,2029.97,3327.09,3173.72,3435.00,500.16,490.58,40.91,0000 0000 0000 0000 000000
2014-09-15 00:58:14,0.01,0.45,0.00,25.14,29.21,31.53,9.46,39.62,1010.76,2029.95,3327.00,3173.09,3434.98,500.16,490.42,40.95,0000 0000 0000 0000 000000
2014-09-15 01:03:15,0.00,0.45,0.00,25.19,29.24,31.54,9.49,39.65,1010.76,2029.88,3327.00,3173.00,3434.75,500.11,490.47,40.99,0000 0000 0000 0000 000000
2014-09-15 01:08:16,-0.01,0.45,0.00,25.24,29.26,31.57,9.52,39.60,1010.76,2029.66,3326.72,3173.00,3434.09,500.65,490.81,41.03,0000 0000 0000 0000 000000
2014-09-15 01:13:18,-0.03,0.45,0.00,25.28,29.29,31.59,9.39,39.44,1010.76,2029.21,3326.08,3172.88,3434.00,500.36,490.50,41.08,0000 0000 0000 0000 000000
2014-09-15 01:18:19,0.01,0.45,0.00,25.30,29.32,31.63,9.39,39.49,1010.76,2029.06,3325.99,3172.26,3433.83,499.74,489.72,41.12,0000 0000 0000 0000 000000
2014-09-15 01:23:20,0.02,0.45,0.00,25.35,29.35,31.64,9.47,39.67,1010.76,2029.00,3325.48,3172.00,3433.09,500.01,490.01,41.16,0000 0000 0000 0000 000000
2014-09-15 01:28:21,0.01,0.45,0.00,25.38,29.37,31.66,9.45,39.77,1010.75,2029.00,3325.02,3171.92,3433.00,499.60,489.59,41.20,0000 0000 0000 0000 000000
2014-09-15 01:33:22,0.03,0.45,0.00,25.40,29.40,31.68,9.43,39.62,1010.70,2029.00,3324.97,3171.29,3432.85,499.50,489.42,41.24,0000 0000 0000 0000 000000
2014-09-15 01:38:24,0.03,0.46,0.00,25.43,29.42,31.71,9.40,39.41,1010.71,2029.00,3324.58,3171.02,3432.23,500.25,490.06,41.29,0000 0000 0000 0000 000000
2014-09-15 01:43:25,0.00,0.46,0.00,25.46,29.44,31.74,9.47,39.59,1010.74,2028.98,3324.06,3171.00,3432.01,500.23,489.85,41.33,0000 0000 0000 0000 000000
2014-09-15 01:48:26,-0.00,0.46,0.00,25.49,29.46,31.76,9.44,39.48,1010.69,2028.95,3324.00,3170.99,3432.00,499.99,489.90,41.37,0000 0000 0000 0000 000000
2014-09-15 01:53:27,0.01,0.46,0.00,25.53,29.49,31.79,9.38,39.46,1010.38,2028.82,3323.85,3170.58,3431.73,499.65,489.08,41.41,0000 0000 0000 0000 000000
2014-09-15 01:58:28,-0.02,0.46,0.00,25.58,29.51,31.81,9.40,39.44,1010.29,2028.31,3323.10,3170.04,3431.08,500.01,489.43,41.45,0000 0000 0000 0000 000000
2014-09-15 02:03:30,-0.02,0.46,0.00,25.61,29.54,31.83,9.38,39.21,1010.28,2028.15,3323.01,3170.00,3431.00,499.87,489.28,41.49,0000 0000 0000 0000 000000
2014-09-15 02:08:31,-0.01,0.45,0.00,25.63,29.56,31.87,9.38,39.42,1010.28,2028.06,3322.97,3169.99,3430.98,499.83,489.01,41.53,0000 0000 0000 0000 000000
2014-09-15 02:13:32,0.02,0.45,0.00,25.64,29.59,31.89,9.43,39.48,1010.28,2028.03,3322.76,3169.90,3430.75,500.06,489.39,41.58,0000 0000 0000 0000 000000
2014-09-15 02:18:33,0.04,0.46,0.00,25.67,29.61,31.91,9.37,39.30,1010.27,2028.00,3322.06,3169.22,3430.08,499.67,488.81,41.62,0000 0000 0000 0000 000000
2014-09-15 02:23:34,0.02,0.46,0.00,25.70,29.63,31.93,9.41,39.31,1010.27,2028.00,3321.57,3168.99,3429.87,500.06,489.20,41.66,0000 0000 0000 0000 000000
2014-09-15 02:28:35,0.03,0.46,0.00,25.72,29.66,31.96,9.39,39.27,1010.27,2028.00,3321.01,3168.47,3429.09,500.15,489.09,41.70,0000 0000 0000 0000 000000
2014-09-15 02:33:36,0.02,0.46,0.00,25.75,29.69,31.98,9.41,39.37,1010.27,2027.99,3320.59,3168.05,3428.99,499.96,489.04,41.74,0000 0000 0000 0000 000000
2014-09-15 02:38:37,0.01,0.46,0.00,25.81,29.71,32.00,9.40,39.39,1010.27,2027.97,3320.05,3168.00,3428.73,499.97,488.82,41.78,0000 0000 0000 0000 000000
2014-09-15 02:43:38,0.01,0.46,0.00,25.84,29.74,32.02,9.40,39.40,1010.27,2027.94,3319.99,3167.91,3428.07,500.04,488.96,41.83,0000 0000 0000 0000 000000
2014-09-15 02:48:39,0.01,0.46,0.00,25.90,29.77,32.06,9.37,39.31,1010.27,2027.80,3319.56,3167.21,3427.99,499.86,488.79,41.87,0000 0000 0000 0000 000000
2014-09-15 02:53:41,-0.03,0.46,0.00,25.95,29.79,32.08,9.42,39.38,1010.19,2027.33,3319.08,3167.01,3427.85,499.99,488.92,41.91,0000 0000 0000 0000 000000
2014-09-15 02:58:42,-0.01,0.46,0.00,25.97,29.82,32.11,9.41,39.44,1009.99,2027.04,3319.00,3166.95,3427.12,499.87,488.52,41.95,0000 0000 0000 0000 000000
2014-09-15 03:03:43,0.02,0.46,0.00,26.02,29.86,32.14,9.26,39.14,1009.89,2027.01,3318.84,3166.59,3427.00,499.63,488.18,41.99,0000 0000 0000 0000 000000
2014-09-15 03:08:44,0.03,0.46,0.00,26.05,29.88,32.17,9.40,39.47,1009.84,2027.00,3318.14,3166.06,3426.75,500.23,488.59,42.03,0000 0000 0000 0000 000000
2014-09-15 03:13:45,0.01,0.46,0.00,26.09,29.91,32.20,9.38,39.38,1009.82,2026.99,3317.99,3165.99,3426.07,499.69,487.96,42.08,0000 0000 0000 0000 000000
2014-09-15 03:18:46,0.01,0.46,0.00,26.14,29.95,32.23,9.47,39.44,1009.81,2026.96,3317.82,3165.85,3426.00,500.23,488.42,42.12,0000 0000 0000 0000 000000
2014-09-15 03:23:47,0.02,0.46,0.00,26.17,29.98,32.26,9.36,39.42,1009.80,2026.88,3317.07,3165.14,3425.84,500.18,488.24,42.16,0000 0000 0000 0000 000000
2014-09-15 03:28:49,-0.05,0.46,0.00,26.21,30.02,32.30,9.37,39.31,1009.79,2026.39,3316.98,3165.00,3425.10,500.27,488.16,42.20,0000 0000 0000 0000 000000
2014-09-15 03:33:50,0.01,0.46,0.00,26.27,30.05,32.32,9.42,39.55,1009.78,2026.06,3316.48,3164.85,3425.00,499.78,487.83,42.24,0000 0000 0000 0000 000000
2014-09-15 03:38:51,0.03,0.46,0.00,26.31,30.09,32.36,9.37,39.53,1009.78,2026.01,3316.02,3164.15,3424.53,499.53,487.61,42.28,0000 0000 0000 0000 000000
2014-09-15 03:43:52,0.01,0.46,0.00,26.35,30.12,32.40,9.40,39.45,1009.78,2026.00,3315.79,3164.00,3424.03,500.12,488.05,42.33,0000 0000 0000 0000 000000
2014-09-15 03:48:53,0.02,0.46,0.00,26.40,30.16,32.43,9.39,39.40,1009.78,2025.99,3315.13,3163.84,3423.94,500.34,487.93,42.37,0000 0000 0000 0000 000000
2014-09-15 03:53:54,0.03,0.47,0.00,26.43,30.19,32.47,9.35,39.42,1009.78,2025.92,3314.90,3163.07,3423.14,499.86,487.55,42.41,0000 0000 0000 0000 000000
2014-09-15 03:58:55,-0.03,0.47,0.00,26.48,30.23,32.50,9.37,39.36,1009.77,2025.62,3314.34,3163.00,3422.99,500.07,487.70,42.45,0000 0000 0000 0000 000000
2014-09-15 04:03:57,-0.02,0.46,0.00,26.52,30.26,32.54,9.36,39.57,1009.77,2025.16,3314.00,3162.86,3422.56,500.31,487.85,42.49,0000 0000 0000 0000 000000
2014-09-15 04:08:58,0.02,0.47,0.00,26.55,30.29,32.57,9.29,39.44,1009.78,2025.06,3313.68,3162.21,3422.03,499.92,487.54,42.53,0000 0000 0000 0000 000000
2014-09-15 04:13:59,0.01,0.47,0.00,26.58,30.32,32.61,9.42,39.49,1009.78,2025.01,3313.11,3162.01,3421.90,500.13,487.57,42.58,0000 0000 0000 0000 000000
2014-09-15 04:19:00,0.02,0.47,0.00,26.63,30.36,32.65,9.38,39.54,1009.73,2025.00,3312.66,3161.83,3421.16,500.18,487.59,42.62,0000 0000 0000 0000 000000
2014-09-15 04:24:01,0.03,0.47,0.00,26.65,30.39,32.68,9.43,39.66,1009.40,2025.00,3312.05,3161.15,3421.00,500.29,487.55,42.66,0000 0000 0000 0000 000000
2014-09-15 04:29:03,0.01,0.47,0.00,26.68,30.42,32.72,9.31,39.58,1009.32,2024.96,3311.86,3160.95,3420.61,499.81,486.92,42.70,0000 0000 0000 0000 000000
2014-09-15 04:34:03,-0.02,0.47,0.00,26.71,30.46,32.75,9.38,39.38,1009.31,2024.44,3311.04,3160.14,3419.97,500.04,486.94,42.74,0000 0000 0000 0000 000000
2014-09-15 04:39:04,0.01,0.47,0.00,26.72,30.49,32.79,9.36,39.53,1009.37,2024.17,3310.61,3160.00,3419.48,500.08,487.16,42.78,0000 0000 0000 0000 000000
2014-09-15 04:44:05,-0.00,0.47,0.00,26.75,30.52,32.82,9.39,39.54,1009.38,2024.08,3310.10,3159.97,3419.04,500.20,487.22,42.83,0000 0000 0000 0000 000000
2014-09-15 04:49:06,0.03,0.47,0.00,26.79,30.55,32.84,9.34,39.52,1009.32,2024.00,3309.86,3159.44,3418.87,500.01,486.87,42.87,0000 0000 0000 0000 000000
2014-09-15 04:54:07,0.03,0.47,0.00,26.81,30.58,32.88,9.37,39.21,1009.31,2024.00,3309.10,3159.01,3418.11,499.42,486.35,42.91,0000 0000 0000 0000 000000
2014-09-15 04:59:09,0.00,0.47,0.00,26.83,30.61,32.91,9.35,39.46,1009.30,2023.99,3309.00,3158.95,3418.00,499.63,486.54,42.95,0000 0000 0000 0000 000000
2014-09-15 05:04:10,0.04,0.47,0.00,26.88,30.64,32.94,9.41,39.38,1009.29,2023.97,3308.60,3158.46,3417.67,500.05,486.75,42.99,0000 0000 0000 0000 000000
2014-09-15 05:09:11,-0.02,0.47,0.00,26.91,30.67,32.97,9.38,39.33,1009.29,2023.69,3308.03,3158.02,3417.03,499.88,486.80,43.03,0000 0000 0000 0000 000000
2014-09-15 05:14:12,-0.03,0.47,0.00,26.93,30.71,33.01,9.33,39.28,1009.29,2023.36,3307.84,3157.99,3416.97,499.76,486.57,43.08,0000 0000 0000 0000 000000
2014-09-15 05:19:13,0.02,0.47,0.00,26.98,30.73,33.04,9.30,39.31,1009.29,2023.05,3307.10,3157.54,3416.34,499.68,486.10,43.12,0000 0000 0000 0000 000000
2014-09-15 05:24:14,0.01,0.47,0.00,26.99,30.76,33.06,9.38,39.36,1009.26,2023.01,3306.98,3157.05,3416.00,500.36,486.84,43.16,0000 0000 0000 0000 000000
2014-09-15 05:29:14,0.02,0.47,0.00,27.01,30.79,33.10,9.33,39.22,1009.14,2023.00,3306.38,3156.98,3415.75,500.28,486.74,43.20,0000 0000 0000 0000 000000
2014-09-15 05:34:16,0.03,0.47,0.00,26.89,30.82,33.15,9.38,39.31,1008.94,2023.00,3305.89,3156.50,3415.03,499.80,486.46,43.24,0000 0000 0000 0000 000000
2014-09-15 05:39:17,0.02,0.48,0.00,26.67,30.83,33.21,9.41,39.39,1008.85,2022.99,3305.16,3156.08,3414.99,500.32,487.13,43.28,0000 0000 0000 0000 000000
2014-09-15 05:44:18,0.01,0.48,0.00,26.42,30.85,33.31,9.37,39.49,1008.85,2022.97,3304.99,3156.01,3414.79,499.90,487.19,43.33,0000 0000 0000 0000 000000
2014-09-15 05:49:19,0.00,0.48,0.00,26.28,30.83,33.47,9.40,39.42,1008.91,2022.98,3304.83,3156.00,3414.60,499.79,487.32,43.37,0000 0000 0000 0000 000000
2014-09-15 05:54:20,0.02,0.48,0.00,26.11,30.82,33.42,9.40,39.40,1008.86,2022.99,3304.21,3156.00,3414.25,500.17,487.91,43.41,0000 0000 0000 0000 000000
2014-09-15 05:59:21,0.00,0.48,0.00,25.95,30.80,33.33,9.34,39.34,1008.81,2022.99,3304.03,3156.00,3414.12,499.43,487.62,43.45,0000 0000 0000 0000 000000
2014-09-15 06:04:22,0.00,0.48,0.00,25.79,30.77,33.23,9.38,39.53,1008.80,2022.99,3304.01,3156.01,3414.15,499.89,488.27,43.49,0000 0000 0000 0000 000000
2014-09-15 06:09:23,0.00,0.48,0.00,25.63,30.73,33.21,9.42,39.38,1008.80,2022.99,3304.00,3156.01,3414.07,500.12,488.52,43.53,0000 0000 0000 0000 000000
2014-09-15 06:14:25,-0.01,0.48,0.00,25.48,30.68,33.10,9.42,39.37,1008.80,2023.01,3304.00,3156.16,3414.53,499.72,488.71,43.58,0000 0000 0000 0000 000000
2014-09-15 06:19:26,-0.00,0.48,0.00,25.36,30.63,33.13,9.42,39.54,1008.80,2023.18,3304.00,3156.81,3414.95,499.38,488.28,43.62,0000 0000 0000 0000 000000
2014-09-15 06:24:27,0.07,0.48,0.00,25.27,30.57,32.97,9.41,39.39,1008.80,2023.80,3304.01,3156.97,3414.99,499.56,488.67,43.66,0000 0000 0000 0000 000000
2014-09-15 06:29:28,0.00,0.48,0.00,25.26,30.51,32.76,9.42,39.50,1008.80,2023.98,3304.05,3157.01,3415.02,500.02,489.15,43.70,0000 0000 0000 0000 000000
2014-09-15 06:34:29,-0.03,0.48,0.00,25.25,30.45,32.59,9.45,39.58,1008.78,2023.99,3304.37,3157.33,3415.36,500.02,489.17,43.74,0000 0000 0000 0000 000000
2014-09-15 06:39:31,-0.00,0.48,0.00,25.30,30.39,32.50,9.46,39.58,1008.60,2024.03,3304.57,3157.75,3415.72,499.72,488.70,43.78,0000 0000 0000 0000 000000
2014-09-15 06:44:31,0.02,0.48,0.00,25.35,30.34,32.49,9.44,39.61,1008.36,2024.31,3304.91,3157.98,3415.97,499.67,488.35,43.83,0000 0000 0000 0000 000000
2014-09-15 06:49:32,0.06,0.48,0.00,25.38,30.29,32.55,9.51,39.54,1008.34,2024.81,3304.55,3157.98,3415.98,500.08,488.68,43.87,0000 0000 0000 0000 000000
2014-09-15 06:54:33,0.00,0.48,0.00,25.44,30.25,32.56,9.46,39.63,1008.34,2024.98,3304.90,3158.00,3415.99,500.38,488.97,43.91,0000 0000 0000 0000 000000
2014-09-15 06:59:34,0.00,0.48,0.00,25.51,30.21,32.53,9.45,39.44,1008.35,2024.99,3304.97,3158.05,3416.01,500.17,488.75,43.95,0000 0000 0000 0000 000000
2014-09-15 07:04:35,-0.01,0.48,0.00,25.56,30.18,32.49,9.44,39.58,1008.36,2025.00,3304.97,3158.29,3416.03,499.87,488.24,43.99,0000 0000 0000 0000 000000
2014-09-15 07:09:36,-0.01,0.48,0.00,25.60,30.15,32.50,9.43,39.71,1008.34,2025.06,3304.98,3158.60,3416.13,499.82,488.24,44.03,0000 0000 0000 0000 000000
2014-09-15 07:14:37,0.01,0.48,0.00,25.63,30.13,32.41,9.42,39.53,1008.37,2025.22,3304.99,3158.93,3416.22,499.95,488.43,44.08,0000 0000 0000 0000 000000
2014-09-15 07:19:38,0.03,0.48,0.00,25.67,30.11,32.42,9.36,39.57,1008.44,2025.48,3304.98,3158.96,3416.26,499.69,487.83,44.12,0000 0000 0000 0000 000000
2014-09-15 07:24:40,0.03,0.48,0.00,25.69,30.10,32.40,9.42,39.72,1008.60,2025.86,3304.96,3158.97,3416.30,500.16,488.48,44.16,0000 0000 0000 0000 000000
2014-09-15 07:29:41,0.02,0.49,0.00,25.72,30.09,32.31,9.44,39.63,1008.60,2025.94,3304.63,3158.96,3416.17,500.17,488.36,44.20,0000 0000 0000 0000 000000
2014-09-15 07:34:42,0.00,0.49,0.00,25.75,30.08,32.31,9.46,39.73,1008.62,2025.94,3304.38,3158.97,3416.04,500.09,488.31,44.24,0000 0000 0000 0000 000000
2014-09-15 07:39:44,0.01,0.49,0.00,25.78,30.07,32.33,9.43,39.67,1008.60,2025.97,3304.25,3158.88,3416.03,500.08,488.33,44.28,0000 0000 0000 0000 000000
2014-09-15 07:44:45,0.01,0.49,0.00,25.79,30.07,32.36,9.38,39.66,1008.55,2025.95,3304.01,3158.59,3416.00,499.89,488.20,44.33,0000 0000 0000 0000 000000
2014-09-15 07:49:46,-0.00,0.49,0.00,25.83,30.07,32.36,9.41,39.70,1008.58,2025.98,3304.00,3158.74,3416.00,499.81,487.92,44.37,0000 0000 0000 0000 000000
2014-09-15 07:54:47,0.01,0.49,0.00,25.82,30.07,32.36,9.43,39.83,1008.73,2025.98,3303.96,3158.42,3415.99,499.89,487.88,44.41,0000 0000 0000 0000 000000
2014-09-15 07:59:48,0.01,0.49,0.00,25.84,30.08,32.35,9.47,39.74,1008.74,2025.99,3303.87,3158.20,3415.97,500.24,488.44,44.45,0000 0000 0000 0000 000000
2014-09-15 08:04:50,0.02,0.49,0.00,25.86,30.09,32.36,9.42,39.67,1008.78,2025.98,3303.20,3158.04,3415.75,499.63,487.78,44.49,0000 0000 0000 0000 000000
2014-09-15 08:09:51,0.01,0.49,0.00,25.88,30.10,32.38,9.50,39.56,1008.78,2025.99,3303.04,3158.03,3415.60,500.60,488.65,44.53,0000 0000 0000 0000 000000
2014-09-15 08:14:52,0.01,0.49,0.00,25.90,30.10,32.39,9.40,39.34,1008.76,2025.99,3303.00,3158.00,3415.13,499.84,488.35,44.58,0000 0000 0000 0000 000000
2014-09-15 08:19:53,0.00,0.49,0.00,25.92,30.10,32.39,9.42,39.42,1008.75,2025.98,3302.93,3158.00,3415.01,500.04,488.17,44.62,0000 0000 0000 0000 000000
2014-09-15 08:24:54,0.00,0.49,0.00,25.92,30.11,32.40,9.44,39.48,1008.66,2025.98,3302.68,3158.00,3415.00,500.18,488.12,44.66,0000 0000 0000 0000 000000
2014-09-15 08:29:55,0.01,0.49,0.00,25.94,30.12,32.41,9.49,39.39,1008.50,2025.99,3302.20,3157.99,3414.99,500.51,488.45,44.70,0000 0000 0000 0000 000000
2014-09-15 08:34:56,0.01,0.49,0.00,25.97,30.12,32.44,9.37,39.38,1008.39,2025.97,3302.00,3157.86,3414.60,499.96,487.81,44.74,0000 0000 0000 0000 000000
2014-09-15 08:39:57,0.02,0.49,0.00,25.96,30.13,32.45,9.37,39.35,1008.36,2025.92,3301.96,3157.27,3414.07,499.95,487.60,44.78,0000 0000 0000 0000 000000
2014-09-15 08:44:58,0.01,0.49,0.00,25.97,30.15,32.45,9.38,39.45,1008.33,2025.85,3301.54,3157.04,3414.01,500.02,487.77,44.83,0000 0000 0000 0000 000000
2014-09-15 08:50:00,0.00,0.49,0.00,25.99,30.15,32.47,9.44,39.39,1008.33,2025.76,3301.07,3157.00,3413.99,500.15,487.86,44.87,0000 0000 0000 0000 000000
2014-09-15 08:55:01,-0.03,0.49,0.00,25.99,30.15,32.48,9.35,39.42,1008.33,2025.50,3300.92,3156.94,3413.58,499.80,487.65,44.91,0000 0000 0000 0000 000000
2014-09-15 09:00:01,0.06,0.49,0.00,25.98,30.16,32.49,9.40,39.37,1008.33,2025.17,3299.78,3156.06,3412.67,500.01,487.89,44.95,0000 0000 0000 0000 000000
2014-09-15 09:05:03,0.07,0.50,0.00,25.99,30.17,32.51,9.38,39.61,1008.32,2025.25,3298.60,3155.19,3411.70,500.01,487.48,44.99,0000 0000 0000 0000 000000
2014-09-15 09:10:04,0.10,0.50,0.00,25.97,30.17,32.51,9.42,39.44,1008.32,2025.19,3296.92,3153.91,3410.27,500.10,487.85,45.03,0000 0000 0000 0000 000000
2014-09-15 09:15:05,0.03,0.50,0.00,25.96,30.17,32.51,9.46,39.48,1008.32,2025.10,3295.99,3153.01,3409.10,500.36,487.96,45.08,0000 0000 0000 0000 000000
2014-09-15 09:20:07,0.01,0.50,0.00,25.96,30.19,32.52,9.39,39.44,1008.32,2025.06,3295.36,3152.98,3409.00,499.94,487.79,45.12,0000 0000 0000 0000 000000
2014-09-15 09:25:08,0.01,0.50,0.00,25.95,30.20,32.53,9.42,39.29,1008.32,2025.07,3295.02,3152.82,3408.95,500.42,488.18,45.16,0000 0000 0000 0000 000000
2014-09-15 09:30:09,0.02,0.50,0.00,25.93,30.20,32.52,9.37,39.31,1008.32,2025.05,3294.97,3152.28,3408.59,500.14,487.94,45.20,0000 0000 0000 0000 000000
2014-09-15 09:35:10,0.02,0.51,0.00,25.92,30.20,32.53,9.38,39.45,1008.30,2025.06,3294.44,3152.03,3408.08,500.11,487.94,45.24,0000 0000 0000 0000 000000
2014-09-15 09:40:11,0.00,0.51,0.00,25.93,30.20,32.54,9.32,39.50,1008.31,2025.07,3294.02,3152.00,3408.01,499.59,487.52,45.28,0000 0000 0000 0000 000000
2014-09-15 09:45:12,-0.00,0.51,0.00,25.91,30.21,32.55,9.45,39.53,1008.29,2025.05,3294.00,3152.00,3408.00,500.23,488.07,45.33,0000 0000 0000 0000 000000
2014-09-15 09:50:13,0.00,0.51,0.00,25.89,30.22,32.56,9.39,39.40,1008.23,2025.05,3293.76,3151.99,3407.96,500.16,487.84,45.37,0000 0000 0000 0000 000000
2014-09-15 09:55:14,0.01,0.51,0.00,25.88,30.22,32.57,9.45,39.48,1008.09,2025.05,3293.30,3151.97,3407.81,500.82,488.63,45.41,0000 0000 0000 0000 000000
2014-09-15 10:00:15,0.03,0.51,0.00,25.86,30.22,32.57,9.35,39.39,1007.88,2025.03,3293.01,3151.57,3407.16,500.11,487.89,45.45,0000 0000 0000 0000 000000
2014-09-15 10:05:16,0.03,0.51,0.00,25.86,30.22,32.56,9.32,39.54,1007.85,2025.02,3292.14,3151.02,3406.85,499.25,487.13,45.49,0000 0000 0000 0000 000000
2014-09-15 10:10:17,0.10,0.51,0.00,25.85,30.22,32.55,9.39,39.43,1007.84,2025.03,3290.32,3150.25,3405.76,499.92,487.58,45.53,0000 0000 0000 0000 000000
2014-09-15 10:15:18,0.04,0.52,0.00,25.86,30.22,32.55,9.44,39.61,1007.83,2025.02,3288.96,3149.23,3405.01,499.96,487.71,45.58,0000 0000 0000 0000 000000
2014-09-15 10:20:20,0.02,0.52,0.00,25.85,30.22,32.57,9.37,39.51,1007.83,2025.03,3288.37,3149.05,3404.92,500.11,487.83,45.62,0000 0000 0000 0000 000000
2014-09-15 10:25:21,0.01,0.52,0.00,25.84,30.22,32.55,9.37,39.56,1007.83,2025.01,3287.91,3149.00,3404.43,499.81,487.47,45.66,0000 0000 0000 0000 000000
2014-09-15 10:30:21,0.03,0.52,0.00,25.83,30.21,32.54,9.41,39.60,1007.83,2025.01,3287.06,3148.81,3404.00,499.97,487.89,45.70,0000 0000 0000 0000 000000
2014-09-15 10:35:23,0.03,0.52,0.00,25.82,30.20,32.54,9.39,39.70,1007.83,2025.01,3286.74,3148.39,3403.75,499.65,487.56,45.74,0000 0000 0000 0000 000000
2014-09-15 10:40:23,0.03,0.52,0.00,25.81,30.20,32.54,9.43,39.73,1007.83,2025.03,3285.99,3147.99,3403.05,500.10,487.72,45.78,0000 0000 0000 0000 000000
2014-09-15 10:45:24,0.03,0.52,0.00,25.82,30.20,32.54,9.32,39.73,1007.82,2025.06,3285.28,3147.67,3402.78,499.71,487.47,45.83,0000 0000 0000 0000 000000
2014-09-15 10:50:26,0.02,0.52,0.00,25.80,30.20,32.53,9.40,39.75,1007.74,2025.03,3285.00,3147.13,3402.15,500.22,487.97,45.87,0000 0000 0000 0000 000000
2014-09-15 10:55:27,0.01,0.52,0.00,25.76,30.19,32.51,9.39,39.78,1007.58,2025.08,3284.91,3147.04,3402.01,499.69,487.68,45.91,0000 0000 0000 0000 000000
2014-09-15 11:00:28,0.01,0.52,0.00,25.76,30.18,32.52,9.46,39.84,1007.49,2025.09,3284.37,3147.00,3402.00,499.83,487.48,45.95,0000 0000 0000 0000 000000
2014-09-15 11:05:29,0.01,0.53,0.00,25.75,30.17,32.51,9.37,39.66,1007.35,2025.10,3284.02,3147.00,3401.99,499.87,487.61,45.99,0000 0000 0000 0000 000000
2014-09-15 11:10:30,0.00,0.53,0.00,25.74,30.17,32.50,9.46,39.67,1007.34,2025.23,3284.00,3147.00,3401.97,500.31,487.91,46.03,0000 0000 0000 0000 000000
2014-09-15 11:15:31,0.01,0.53,0.00,25.72,30.17,32.50,9.38,39.60,1007.34,2025.15,3283.95,3146.99,3401.76,500.03,487.62,46.08,0000 0000 0000 0000 000000
2014-09-15 11:20:32,0.01,0.53,0.00,25.71,30.16,32.50,9.42,39.66,1007.34,2025.15,3283.56,3146.97,3401.26,500.47,488.07,46.12,0000 0000 0000 0000 000000
2014-09-15 11:25:33,0.02,0.53,0.00,25.66,30.15,32.49,9.41,39.80,1007.34,2025.24,3283.02,3146.83,3401.02,499.48,487.34,46.16,0000 0000 0000 0000 000000
2014-09-15 11:30:35,0.03,0.53,0.00,25.65,30.15,32.48,9.34,39.58,1007.33,2025.35,3282.99,3146.28,3401.00,499.57,487.35,46.20,0000 0000 0000 0000 000000
2014-09-15 11:35:36,0.01,0.53,0.00,25.64,30.14,32.48,9.32,39.57,1007.34,2025.33,3282.88,3146.06,3401.00,499.58,487.34,46.24,0000 0000 0000 0000 000000
2014-09-15 11:40:37,0.04,0.53,0.00,25.62,30.12,32.46,9.44,39.76,1007.34,2025.64,3282.65,3146.09,3401.00,500.28,488.01,46.28,0000 0000 0000 0000 000000
2014-09-15 11:45:38,0.02,0.53,0.00,25.62,30.12,32.46,9.38,39.95,1007.32,2025.80,3282.21,3146.07,3400.98,499.90,487.72,46.33,0000 0000 0000 0000 000000
2014-09-15 11:50:39,0.00,0.53,0.00,25.60,30.12,32.44,9.47,39.81,1007.28,2025.82,3282.01,3146.02,3400.85,500.21,487.98,46.37,0000 0000 0000 0000 000000
2014-09-15 11:55:41,0.01,0.53,0.00,25.58,30.10,32.45,9.43,39.88,1007.12,2025.86,3281.98,3146.00,3400.43,500.30,487.99,46.41,0000 0000 0000 0000 000000
2014-09-15 12:00:42,0.01,0.53,0.00,25.57,30.10,32.43,9.48,39.75,1006.88,2025.91,3281.77,3145.99,3400.04,500.44,488.17,46.45,0000 0000 0000 0000 000000
2014-09-15 12:05:43,0.01,0.53,0.00,25.56,30.10,32.42,9.43,39.91,1006.86,2025.91,3281.11,3145.99,3400.00,500.09,487.64,46.49,0000 0000 0000 0000 000000
2014-09-15 12:10:44,0.00,0.53,0.00,25.55,30.07,32.40,9.41,39.84,1006.86,2025.95,3281.00,3145.94,3400.00,500.19,487.91,46.53,0000 0000 0000 0000 000000
2014-09-15 12:15:45,0.01,0.53,0.00,25.52,30.07,32.41,9.36,39.77,1006.85,2025.91,3280.94,3145.77,3399.98,500.07,487.90,46.58,0000 0000 0000 0000 000000
2014-09-15 12:20:46,0.00,0.53,0.00,25.51,30.06,32.39,9.39,39.88,1006.85,2025.95,3280.94,3145.86,3399.96,499.69,487.52,46.62,0000 0000 0000 0000 000000
2014-09-15 12:25:48,0.02,0.54,0.00,25.51,30.05,32.37,9.41,39.68,1006.85,2025.97,3280.55,3145.78,3399.87,500.43,488.03,46.66,0000 0000 0000 0000 000000
2014-09-15 12:30:49,0.04,0.54,0.00,25.49,30.03,32.35,9.45,39.83,1006.85,2025.98,3280.04,3145.27,3399.38,500.48,488.29,46.70,0000 0000 0000 0000 000000
2014-09-15 12:35:50,0.00,0.54,0.00,25.48,30.02,32.34,9.41,39.86,1006.85,2025.99,3280.00,3145.06,3399.05,499.76,487.71,46.74,0000 0000 0000 0000 000000
2014-09-15 12:40:52,0.01,0.54,0.00,25.45,30.00,32.32,9.44,39.73,1006.85,2025.99,3279.35,3145.00,3398.96,500.21,487.96,46.78,0000 0000 0000 0000 000000
2014-09-15 12:45:53,0.05,0.54,0.00,25.44,29.99,32.31,9.35,39.77,1006.85,2025.99,3278.60,3144.55,3398.27,499.74,487.54,46.83,0000 0000 0000 0000 000000
2014-09-15 12:50:54,0.02,0.54,0.00,25.42,29.97,32.31,9.41,39.74,1006.63,2025.99,3277.87,3144.01,3397.86,499.66,487.50,46.87,0000 0000 0000 0000 000000
2014-09-15 12:55:55,0.04,0.54,0.00,25.40,29.96,32.31,9.43,39.81,1006.50,2025.99,3277.06,3143.74,3397.11,499.95,487.73,46.91,0000 0000 0000 0000 000000
2014-09-15 13:00:55,0.03,0.54,0.00,25.38,29.95,32.29,9.38,39.87,1006.41,2026.00,3276.30,3143.05,3396.90,499.81,487.54,46.95,0000 0000 0000 0000 000000